HULIANWANG DIGUI-84

Last updated on Fri Oct 17 2025 00:02:07 GMT+0000 (Coordinated Universal Time)

1 65819U 25220C 25287.69206525 .00000041 00000+0 31318-4 0 9993 2 65819 86.4706 127.2004 0010020 186.9367 173.1652 13.63984563 2354
UTC large
Height (km)
Speed (km/s)
/
Latitude / Longitude
Inclination (degrees)
Orbital Period (minutes)
Azimuth
Elevation
Range (km)
Doppler Factor

Next 0 passes for location: London (51.5072 / 0.1276)

Sorry there are no passes over London.